Theta_e
302 295 293 293 296 296 297 298 299 295 297 294 291 291 290 289 289 288 287 289 288 288 287 289 289 289 291 293 295 293 290 292 292 293 295 296 296 297 301 305 307 309 311 314 315 316 317 318 320 321 321 322 322 323 324 324 324 326 326 326 326 327 328 329 329 330 329 328 328 329 327 326 327 326 327 326 327 327 327 327 326 326 326 326 325 325
300 295 294 297 297 297 297 296 294 294 294 292 290 289 288 287 289 288 289 288 288 289 285 285 286 288 290 292 294 294 289 292 292 292 293 294 294 295 297 300 303 307 309 308 309 309 313 316 318 319 320 319 320 321 323 323 324 325 326 326 326 327 327 328 329 330 330 330 329 328 328 328 328 326 325 326 327 327 327 327 327 327 328 327 326 325
294 293 296 298 297 297 296 294 294 294 291 290 289 287 286 286 286 288 287 287 287 288 286 284 286 288 290 291 293 293 293 293 294 294 295 294 294 293 294 296 298 300 303 304 306 308 310 313 315 317 319 320 321 322 322 323 324 324 324 325 326 327 327 327 328 329 329 331 331 331 330 330 327 328 329 329 329 329 328 328 328 328 329 328 327 327
289 293 296 296 295 295 294 292 292 291 289 288 286 286 286 287 287 288 287 287 289 288 286 285 285 288 290 290 291 293 292 293 294 293 294 294 295 294 295 296 296 296 298 299 302 303 305 309 312 314 317 319 321 321 322 322 323 324 323 325 325 326 326 327 327 326 330 331 332 332 332 331 330 328 327 329 328 329 328 327 328 329 329 328 328 328
291 293 295 293 294 295 293 291 291 290 288 288 289 287 285 285 286 287 285 286 286 286 287 285 286 288 289 290 293 293 291 292 293 291 291 292 293 296 296 295 295 296 297 298 299 300 301 303 307 311 314 318 319 320 321 322 322 323 324 324 325 325 325 326 325 326 328 328 327 328 326 325 326 320 322 323 322 325 324 326 326 327 328 328 329 328
291 294 295 293 293 294 293 290 290 291 288 286 288 290 291 288 286 286 287 287 285 284 285 286 282 284 285 286 290 292 289 289 289 291 292 293 293 293 293 294 295 296 296 297 298 299 300 302 304 307 311 314 317 319 321 322 323 323 324 324 324 325 325 325 326 326 326 326 327 324 323 320 321 322 321 319 321 320 321 323 325 326 327 328 328 328
293 293 295 293 292 291 292 292 291 293 289 287 288 289 289 289 289 289 287 287 282 281 286 286 283 280 283 288 289 288 288 290 291 290 291 292 292 291 293 294 295 295 296 296 296 297 296 299 301 303 308 312 314 317 320 322 322 323 324 324 324 324 325 325 325 325 324 326 326 326 325 325 323 323 324 325 325 325 324 325 324 326 326 327 327 327
291 293 293 293 292 291 289 290 291 293 291 288 291 290 290 290 290 289 288 286 283 284 287 285 284 280 281 288 290 291 288 290 290 291 290 291 291 291 292 293 294 296 296 297 297 297 297 297 299 301 304 309 312 315 318 320 321 322 322 323 323 324 323 325 325 324 325 325 326 326 326 325 326 325 326 327 326 326 324 324 324 325 325 325 327 327
293 290 292 290 290 289 289 289 290 295 294 292 291 292 291 291 291 290 289 285 285 284 283 284 287 283 280 283 283 285 290 292 291 292 292 291 292 293 293 294 294 295 296 296 297 297 297 297 297 299 301 305 310 313 315 318 320 321 322 322 323 323 323 324 324 324 324 324 326 326 326 325 325 327 327 325 323 324 323 323 323 323 324 323 324 325
288 292 293 293 291 288 287 290 293 296 292 291 291 294 292 291 290 290 286 288 285 282 282 283 284 282 284 285 287 284 284 288 290 291 293 292 293 293 294 294 295 295 295 295 295 297 297 297 297 297 299 301 305 310 314 316 318 319 320 321 321 322 323 323 323 323 324 324 323 325 325 324 325 324 322 320 320 321 320 323 322 322 322 321 321 322
287 291 294 292 291 290 290 291 294 296 294 294 293 291 290 288 286 285 286 285 285 281 283 284 282 284 281 285 288 287 288 289 288 289 290 291 292 291 292 293 295 295 295 295 294 295 295 296 296 295 296 299 301 306 311 313 315 317 319 320 320 321 322 322 322 322 323 323 324 324 324 324 324 323 322 318 317 318 316 321 320 319 320 319 319 319
285 288 291 289 289 288 292 289 289 291 293 293 289 287 289 287 288 286 285 286 281 280 281 280 282 283 280 283 285 290 288 285 290 291 293 294 293 294 294 293 293 292 292 292 292 293 294 294 293 293 294 296 298 302 307 311 313 315 317 319 319 320 321 322 322 322 323 323 324 324 325 324 325 324 322 321 319 316 314 319 318 317 316 315 316 316
284 286 285 287 290 294 288 289 287 290 291 291 290 289 286 281 282 279 282 279 280 280 281 278 280 280 282 289 286 287 287 288 287 288 291 291 292 292 292 291 291 291 290 290 291 292 292 292 294 293 294 295 296 299 304 308 312 314 316 317 318 318 320 321 321 321 322 323 323 324 324 324 324 324 323 322 322 319 318 319 318 314 314 313 311 311
281 282 284 286 288 290 293 287 283 285 288 289 288 287 284 279 278 277 279 277 278 281 280 280 281 280 286 287 289 292 296 296 292 289 289 290 290 291 292 291 290 291 291 291 292 292 293 293 294 293 294 294 295 297 301 306 309 312 314 315 317 318 319 319 320 321 321 322 323 324 324 324 323 323 322 322 322 320 320 320 319 315 314 312 313 313
277 276 283 285 283 287 292 290 289 286 288 289 290 291 287 284 279 276 277 278 279 279 278 279 279 280 281 285 286 288 290 289 288 287 288 288 288 289 289 289 289 290 291 292 292 293 294 294 294 294 294 294 294 296 299 303 307 311 312 314 315 316 317 318 319 320 320 321 322 323 324 324 324 323 322 322 322 321 318 319 319 317 316 314 315 316
281 279 281 287 286 291 291 289 290 288 288 288 288 289 285 285 283 276 272 277 275 275 274 276 282 282 286 287 289 288 286 287 288 288 288 289 288 287 288 291 292 292 293 293 293 294 294 295 295 294 294 294 294 296 298 301 305 308 311 313 315 316 317 317 317 319 320 320 321 321 322 323 323 321 322 321 319 320 319 318 318 317 317 317 317 316
280 279 283 285 285 291 292 289 289 294 283 286 288 285 287 288 284 278 276 277 274 273 275 275 278 283 284 289 292 294 290 290 287 286 286 287 287 287 288 290 291 293 293 293 294 294 295 294 293 293 293 294 294 295 297 299 303 306 309 310 312 314 315 316 316 318 319 320 319 320 321 321 321 321 320 320 318 318 317 317 317 317 316 317 316 314
281 278 283 282 283 285 283 289 290 289 287 288 284 288 288 287 284 281 276 272 271 272 274 274 279 281 280 282 285 283 287 290 290 287 286 285 286 287 290 291 291 292 292 292 292 292 292 292 292 292 292 293 294 295 295 297 299 302 306 309 310 311 313 314 315 316 317 318 318 319 319 320 321 320 320 320 318 316 314 314 314 314 312 313 312 311
286 278 282 282 283 286 286 288 287 287 286 290 286 291 289 280 279 281 277 273 270 268 271 272 274 276 280 284 285 287 283 286 291 291 288 288 288 288 288 289 290 290 290 290 291 292 292 292 292 292 293 293 293 293 294 296 297 298 300 302 306 309 311 312 313 314 315 317 318 319 319 319 319 319 319 318 316 314 314 312 313 312 312 310 307 306
282 277 278 283 283 284 285 286 281 284 287 287 288 287 286 283 278 277 280 274 275 271 268 273 269 280 280 281 284 289 292 290 290 290 290 289 289 288 288 290 290 290 291 290 291 291 292 292 293 293 293 294 294 294 294 294 295 296 299 300 302 304 306 307 309 311 314 316 317 317 317 317 318 316 317 315 314 312 313 312 312 311 309 308 305 306
281 282 274 282 283 284 281 284 283 285 283 283 284 284 285 283 284 282 280 278 276 266 266 269 273 278 281 283 285 289 290 292 292 293 291 289 290 290 289 289 290 290 290 290 290 290 291 292 292 292 292 292 292 293 293 294 296 296 296 297 300 303 305 306 308 310 313 315 315 314 314 315 314 314 314 313 312 312 312 311 310 311 310 306 305 304
279 281 278 279 281 281 279 281 283 286 288 287 287 285 287 284 279 278 276 278 273 275 273 267 276 281 283 281 286 288 290 289 290 289 291 290 289 289 290 290 289 289 290 289 289 290 291 290 290 290 291 292 293 295 295 296 296 296 296 297 298 300 303 305 307 309 311 313 314 314 313 313 313 313 312 312 311 311 310 310 310 308 305 305 303 303
282 281 282 275 278 282 283 284 282 283 286 284 285 284 286 284 280 274 273 274 272 275 271 269 270 280 286 285 285 287 287 285 284 284 286 287 287 288 289 289 289 288 288 289 289 290 290 290 290 289 289 292 293 295 295 295 297 297 296 296 298 300 302 305 307 307 309 310 311 312 312 311 310 310 309 309 308 308 308 307 305 303 304 302 299 299
289 282 279 276 280 280 282 282 283 282 285 285 283 281 283 284 283 280 275 275 277 273 275 272 272 280 287 284 284 283 282 283 282 283 285 285 287 288 288 289 288 288 289 289 289 289 290 289 288 288 292 294 294 294 296 297 298 298 297 297 298 299 302 303 305 306 307 308 308 308 307 307 306 307 307 307 306 306 304 303 301 301 302 300 299 298
282 281 283 275 274 276 278 283 283 284 284 280 281 282 283 283 284 281 278 279 278 278 275 273 275 280 284 282 281 281 281 283 284 284 284 287 288 288 288 288 288 287 288 290 290 290 288 288 289 292 293 294 294 294 295 297 298 298 298 297 297 299 300 301 303 304 304 304 304 303 304 304 304 305 304 304 303 302 299 299 299 299 299 297 297 295
285 284 284 278 274 273 271 271 276 279 281 281 280 284 284 286 285 282 280 280 277 281 281 278 281 284 283 283 283 281 282 284 284 284 282 285 287 288 287 287 287 288 289 290 291 289 290 291 289 288 289 292 292 293 295 296 297 297 297 297 297 298 298 298 299 301 302 302 303 302 302 302 302 303 302 300 299 297 297 297 297 297 296 297 295 292
284 284 286 285 282 280 282 281 284 286 283 282 282 285 285 286 285 286 280 275 280 279 280 284 285 282 283 285 283 284 285 285 287 287 287 286 285 285 284 286 287 288 289 290 291 291 289 289 290 291 289 290 291 291 292 294 296 296 296 296 296 297 298 297 299 300 301 300 302 301 301 301 301 301 298 297 296 295 295 296 295 295 295 293 293 292
283 284 285 285 285 282 281 280 285 288 284 285 284 283 285 284 284 284 282 282 281 277 278 284 284 284 285 285 287 286 288 288 290 289 287 286 287 288 289 287 289 289 289 289 289 291 293 292 290 290 290 289 290 289 290 292 294 296 296 296 295 296 297 297 298 299 300 300 299 299 298 298 296 296 295 294 293 294 294 293 293 293 292 292 292 292
286 284 285 284 282 280 280 283 285 287 286 285 285 284 283 285 283 283 284 285 283 282 281 283 284 284 284 287 291 291 291 294 293 291 291 289 288 288 287 286 287 288 289 290 292 292 292 292 292 291 290 289 289 289 289 290 291 292 293 294 295 295 296 296 298 298 298 298 299 297 295 293 293 292 292 292 292 292 292 292 291 291 290 291 290 290
288 280 282 284 280 280 280 283 283 285 283 282 284 284 285 285 284 285 286 286 285 285 287 283 281 283 285 285 288 291 292 289 288 286 286 288 291 291 290 290 290 291 291 291 292 293 292 292 292 291 290 289 289 290 290 290 292 293 294 294 294 294 295 295 297 297 297 297 295 292 292 291 291 291 291 291 291 291 291 290 290 290 290 290 289 289
285 278 284 278 276 276 279 280 281 282 283 282 283 284 285 285 286 286 286 286 285 286 287 285 284 286 288 287 288 288 286 286 287 289 290 290 289 290 289 289 291 292 293 292 292 292 291 291 291 290 290 290 290 290 291 291 292 293 294 294 293 294 293 294 296 296 296 295 292 291 291 291 291 291 291 291 291 290 290 289 290 289 289 288 288 288
282 275 276 279 276 274 277 278 279 278 279 279 281 283 283 284 282 284 283 285 284 284 285 284 284 285 284 289 290 290 289 291 293 294 293 293 291 290 290 292 293 294 293 293 292 291 291 291 291 291 291 291 290 290 290 290 291 292 294 294 294 293 291 293 295 295 295 293 291 291 291 291 290 291 291 290 290 289 289 289 289 289 288 288 287 287
281 280 278 278 279 275 277 278 280 279 280 278 281 284 285 284 285 286 287 287 288 288 284 283 285 289 288 287 288 287 290 291 291 291 292 292 292 291 292 292 293 292 292 292 291 291 291 291 291 292 292 290 290 290 291 291 290 292 294 294 293 291 291 292 293 294 294 292 291 291 291 290 291 291 290 290 289 289 288 288 289 288 288 288 287 287
286 285 282 284 281 277 275 279 280 280 274 278 289 288 287 285 284 283 284 286 287 288 288 290 291 285 284 285 289 288 288 290 291 293 293 292 292 291 290 290 291 291 291 290 290 290 291 291 291 291 291 291 290 290 290 290 291 291 292 293 292 291 292 293 293 293 292 291 291 291 290 290 291 290 290 289 289 289 288 289 288 288 288 287 287 287
287 287 284 281 280 273 274 278 279 274 277 286 284 288 289 288 287 287 288 288 288 289 289 289 289 285 287 289 289 290 291 292 290 287 287 285 286 289 290 290 290 290 291 291 290 290 290 290 290 290 290 290 289 288 288 288 289 288 289 290 291 291 292 292 292 292 291 290 290 290 290 290 291 290 289 289 288 288 288 289 288 287 287 287 287 287
287 286 278 271 272 271 271 277 272 276 281 283 281 282 286 288 288 286 285 285 285 287 289 288 290 291 291 289 287 287 288 286 285 284 285 288 289 290 289 290 291 291 291 292 291 292 292 290 290 290 291 290 289 288 289 289 288 288 288 289 290 290 291 291 292 292 290 290 290 290 290 290 290 289 288 288 288 288 288 288 287 287 286 286 286 285
290 285 284 275 270 275 272 276 279 280 282 286 281 283 284 283 282 284 281 285 288 288 288 288 290 290 291 291 290 288 284 286 287 290 290 291 292 290 290 291 292 292 292 292 292 292 291 288 288 290 289 288 289 289 289 288 288 288 288 288 290 289 290 290 291 291 290 290 290 290 290 290 290 288 288 287 287 287 287 287 286 286 285 285 285 284
289 286 283 282 271 273 275 269 269 272 276 282 283 284 288 287 288 288 286 286 289 289 290 289 289 289 290 290 287 283 285 288 286 289 293 293 292 293 291 291 291 291 291 290 289 288 288 288 287 287 288 289 288 288 288 288 288 288 288 288 289 289 289 290 291 291 291 291 290 290 290 290 290 288 287 287 287 287 287 286 286 285 285 285 284 284
283 283 286 286 276 270 270 274 274 274 279 282 284 286 287 287 289 287 284 283 284 287 289 290 290 290 290 288 283 286 285 279 283 288 293 291 288 286 288 288 288 288 287 286 286 287 287 287 286 287 286 286 288 287 287 287 288 288 288 288 288 288 289 289 291 291 290 290 290 289 289 289 288 288 287 287 287 287 286 285 285 284 284 285 284 283
284 278 282 276 269 276 276 272 277 275 276 281 282 283 286 286 290 288 277 280 285 288 289 290 290 289 287 284 285 286 285 280 285 289 289 288 286 285 285 286 285 284 285 284 284 284 284 284 285 287 287 287 288 286 286 286 287 287 288 287 287 287 289 289 290 290 290 289 288 288 287 287 287 287 287 287 286 286 285 285 283 283 283 283 283 282
278 274 278 281 279 275 281 276 271 276 278 278 278 281 284 289 290 281 278 281 280 285 285 288 287 287 285 284 287 285 287 291 291 290 286 284 285 285 283 283 284 283 284 284 284 283 283 284 284 285 285 285 285 285 285 286 287 287 287 286 286 287 288 288 288 288 288 287 287 286 286 286 287 286 286 286 286 285 283 283 283 282 282 281 281 281
276 278 271 274 278 278 277 274 277 275 278 281 279 284 287 288 275 280 286 281 284 285 283 287 287 286 286 286 287 289 289 289 289 285 286 286 286 285 285 285 284 284 283 281 281 281 283 284 283 283 283 281 283 284 285 286 286 286 286 285 286 286 285 285 285 285 285 285 285 284 284 285 285 285 285 284 283 283 282 282 282 282 282 281 281 280
280 279 278 279 275 270 269 277 270 275 280 285 284 283 284 285 284 287 284 284 284 286 284 283 285 285 286 286 287 288 286 285 285 286 285 285 284 286 286 285 284 284 284 283 283 282 281 283 283 281 280 280 281 283 283 284 284 283 283 285 285 283 284 284 284 284 284 283 283 283 283 283 283 283 283 282 283 282 281 281 281 281 281 280 280 280
285 282 280 281 282 279 277 275 278 282 284 287 289 287 287 284 286 289 289 290 285 283 285 286 283 285 286 287 286 285 285 283 284 284 284 285 285 284 283 283 281 280 280 279 279 280 278 282 279 279 279 279 280 281 282 284 284 282 282 283 281 282 282 282 282 282 282 281 281 281 281 281 281 281 282 282 282 282 281 280 281 280 280 280 280 279
285 285 283 282 280 282 281 284 283 281 287 289 290 286 291 291 284 286 290 290 288 284 281 284 287 283 286 285 284 285 283 284 285 284 285 284 283 283 284 283 281 280 279 279 279 276 276 281 277 277 278 278 277 278 280 281 282 280 282 280 279 281 281 280 280 281 280 280 279 280 279 279 280 280 280 281 281 281 280 279 279 279 279 280 280 279
282 286 280 285 281 281 282 282 281 280 284 287 284 283 292 289 281 282 285 288 286 287 285 287 284 284 283 282 284 281 283 283 283 283 283 282 283 283 280 279 278 278 277 277 278 276 275 275 274 274 276 276 275 276 277 277 280 281 280 278 278 279 280 279 279 279 279 277 278 277 277 278 277 277 277 278 280 280 280 280 279 279 279 280 279 279
282 280 284 279 281 283 282 282 283 284 283 286 287 285 285 287 285 283 284 287 286 284 284 283 283 283 284 283 286 285 283 282 282 282 282 282 282 282 281 280 278 278 278 277 277 275 276 274 275 275 275 276 275 274 275 274 276 278 277 277 278 278 278 278 279 278 276 276 275 275 276 277 277 277 276 276 278 278 279 279 280 280 279 280 279 279
283 280 286 277 282 284 283 282 283 281 284 287 285 285 288 289 286 284 284 283 282 282 283 283 281 282 281 283 282 284 282 282 283 283 283 283 283 282 281 280 279 277 276 274 274 273 273 273 274 274 274 276 276 273 272 272 273 274 275 275 277 276 277 277 278 277 276 275 275 275 275 276 276 276 277 277 278 278 278 279 279 279 279 279 279 278
283 287 285 282 282 279 279 281 280 283 286 286 285 284 287 291 291 287 283 282 283 284 282 281 281 282 282 282 282 283 285 283 282 282 283 283 283 281 280 279 277 276 275 275 274 273 276 274 273 273 273 275 273 271 270 271 271 272 274 275 274 276 277 276 274 274 273 273 274 274 275 275 275 276 276 276 275 274 274 278 278 279 278 276 276 279
285 285 281 282 278 280 283 283 284 284 281 286 287 289 289 286 286 286 284 284 284 283 281 283 281 278 279 280 281 282 284 284 283 281 281 281 281 280 279 277 274 274 273 272 271 270 271 270 271 272 272 272 271 270 270 270 270 271 272 272 272 275 276 274 273 272 272 272 273 273 273 273 274 273 274 275 275 274 271 275 278 277 277 277 277 280
287 285 284 285 284 285 287 286 289 290 287 290 291 290 288 284 284 286 287 286 283 283 284 284 282 280 281 279 277 281 282 282 282 280 279 279 278 276 276 275 275 274 274 271 272 271 270 270 269 270 270 271 270 269 269 269 269 270 270 271 272 273 274 274 274 272 271 272 271 272 272 272 273 272 273 273 274 273 274 271 274 279 279 279 278 279
Wind_Speed
3 8 8 9 9 10 10 9 5 4 5 5 4 3 3 4 3 2 2 1 1 2 6 8 7 9 10 11 14 4 4 4 6 8 9 8 8 9 9 10 10 11 16 6 8 9 9 9 10 9 9 9 9 10 10 11 12 13 13 11 13 11 10 9 9 9 10 10 10 10 11 11 9 8 8 7 7 7 8 9 8 8 7 7 7 7
3 8 9 6 6 11 10 6 6 4 5 8 6 5 4 3 7 3 1 2 3 2 4 1 3 8 12 13 14 8 5 10 10 10 10 11 9 8 9 11 12 15 5 5 9 7 8 9 10 9 9 10 12 12 12 14 15 14 13 14 13 10 10 11 11 9 9 10 9 8 8 8 7 7 8 8 7 8 7 8 9 9 9 9 7 8
8 11 6 7 6 7 5 5 4 7 4 3 6 5 3 4 3 7 3 2 2 2 7 4 5 10 11 12 13 13 9 9 9 10 11 11 10 9 10 11 12 7 10 8 12 8 9 10 10 10 10 11 13 13 15 15 14 13 14 14 13 12 11 11 11 11 11 10 9 10 8 9 6 6 8 9 8 9 10 10 10 9 9 9 8 8
7 8 8 6 7 9 4 4 5 4 4 5 6 6 6 3 3 5 1 4 2 2 3 4 8 11 10 10 14 14 7 8 10 10 12 9 11 11 13 13 10 10 11 13 15 13 11 11 11 10 11 12 12 13 13 12 13 12 13 14 15 13 12 11 12 12 12 11 10 10 10 9 9 8 8 9 8 9 10 11 9 9 9 9 9 9
4 3 6 8 7 10 7 4 7 6 4 0 5 3 4 2 3 4 3 2 3 1 1 4 7 11 8 10 12 5 5 7 10 6 9 9 9 10 5 3 8 13 12 13 12 10 10 11 14 16 16 11 12 14 14 14 14 12 16 16 16 15 14 12 12 13 11 9 8 8 6 4 6 2 5 6 7 8 9 9 8 9 8 9 9 9
1 2 8 9 6 8 9 8 9 9 6 3 4 6 7 7 6 1 2 3 6 3 1 3 5 8 3 7 11 4 2 5 5 8 12 13 11 9 10 12 9 9 10 12 14 13 11 13 12 9 9 12 13 14 15 14 15 15 15 15 15 13 12 13 14 14 11 11 11 9 9 9 9 9 8 11 12 9 7 8 6 7 8 9 9 8
3 1 8 12 9 6 7 7 6 8 6 6 7 5 6 7 5 5 2 3 3 5 1 3 5 9 5 10 6 5 5 9 6 8 10 9 9 7 11 11 12 12 12 10 12 10 8 12 11 12 12 15 15 16 14 14 16 17 16 14 14 14 13 13 13 13 12 13 12 14 13 12 12 11 10 8 8 8 8 6 8 8 8 9 9 8
4 8 6 5 7 9 7 10 7 9 8 5 2 10 6 6 4 3 4 3 4 2 4 1 3 5 9 12 4 8 10 13 11 11 8 10 9 10 11 12 12 12 12 11 14 14 12 10 12 15 17 15 18 17 11 13 13 16 17 15 16 13 13 12 12 13 14 14 14 14 14 12 13 12 12 10 8 7 8 8 9 8 8 8 9 9
13 9 12 12 8 8 10 4 5 7 6 2 5 9 9 8 4 5 4 2 1 3 7 2 0 4 7 8 5 1 12 15 14 11 10 8 11 12 12 13 13 14 13 12 12 13 12 13 13 13 12 13 11 8 12 15 14 14 13 13 12 13 13 12 14 14 15 14 14 14 12 13 12 11 10 7 7 8 9 10 8 8 8 7 8 7
2 8 12 12 10 9 3 7 10 10 6 2 6 3 4 5 4 3 2 1 2 2 8 3 2 4 16 6 9 1 4 13 7 7 11 10 12 12 12 12 13 12 10 8 12 12 9 9 10 10 7 5 12 12 11 10 9 10 10 12 14 15 12 12 14 14 15 15 13 13 14 15 12 10 7 7 8 8 8 10 9 8 7 7 7 7
1 4 3 6 8 6 7 2 7 11 2 8 7 7 4 4 2 3 3 2 3 6 7 7 6 5 10 3 10 7 9 8 8 6 7 8 9 11 11 11 10 11 10 8 7 9 11 9 8 6 11 14 10 9 11 11 11 11 12 13 15 16 13 13 14 15 16 15 14 14 15 16 15 13 11 9 8 8 8 9 9 8 8 6 7 6
3 2 3 2 3 4 5 4 5 2 11 12 3 5 6 3 5 5 2 2 2 7 3 3 6 7 8 3 5 8 3 2 6 9 10 11 11 11 10 10 8 5 5 5 5 8 8 7 7 5 10 11 11 7 10 12 12 12 12 13 16 15 14 13 13 14 15 14 15 15 16 16 16 14 12 13 12 11 11 11 9 8 6 7 6 6
3 4 2 2 5 12 4 9 1 3 4 4 8 8 8 2 3 2 1 5 10 7 1 1 3 1 17 14 4 4 7 8 8 9 10 9 9 8 8 6 5 4 4 7 7 7 7 8 8 8 11 8 8 10 12 12 11 12 12 15 16 16 15 15 14 16 16 15 16 16 16 16 13 14 14 14 13 12 12 10 9 8 9 8 6 7
2 1 0 3 4 4 11 12 6 5 7 7 11 10 8 5 5 6 3 2 4 2 2 3 1 5 9 10 10 15 16 13 8 7 8 8 10 10 9 7 7 8 7 7 7 8 8 9 9 8 8 8 8 9 10 9 10 10 11 13 15 17 15 14 14 16 16 17 17 16 15 14 12 14 14 13 13 12 11 10 11 11 12 11 12 11
9 2 9 8 4 2 7 5 9 4 11 7 2 7 4 4 5 6 4 8 6 3 1 4 2 9 2 4 1 5 6 7 6 4 6 6 8 9 8 8 10 11 11 9 9 9 9 8 5 7 7 8 8 8 9 8 9 9 11 12 15 15 13 14 16 15 17 16 15 14 14 13 12 13 12 12 11 11 11 10 11 10 10 11 10 11
7 1 2 4 3 11 11 5 7 8 5 1 2 3 1 6 3 3 3 2 2 1 0 3 8 3 6 4 8 6 4 7 7 8 6 9 7 5 7 9 10 9 9 6 6 8 8 6 6 6 7 7 6 7 7 8 8 9 11 11 13 15 15 15 16 16 17 16 13 14 15 15 14 12 11 10 9 9 11 11 11 11 10 10 10 7
1 4 1 2 3 15 14 8 5 12 10 8 6 9 7 2 7 3 1 0 3 2 8 3 8 8 7 8 9 14 7 11 4 5 3 7 5 3 7 9 10 10 9 8 7 7 8 6 5 6 7 6 6 6 7 8 8 10 10 10 12 12 10 12 14 15 14 13 13 14 15 13 13 13 13 12 12 12 10 10 10 9 10 9 8 8
10 4 2 3 4 2 2 6 7 1 2 8 9 7 5 2 3 4 2 1 1 4 6 2 9 7 2 10 5 4 4 10 9 5 5 5 4 4 6 7 6 6 8 8 8 8 8 8 7 6 6 6 7 7 7 8 6 6 7 8 11 10 12 11 11 12 12 12 13 13 13 13 13 13 12 11 11 10 9 9 8 7 7 8 8 8
9 5 0 2 1 1 1 5 3 1 2 7 6 6 11 4 2 2 3 3 1 2 5 4 4 7 8 10 8 10 4 6 11 8 3 5 3 5 5 8 10 9 7 7 7 7 7 6 6 6 6 5 6 6 7 6 6 6 6 6 6 9 9 8 8 8 8 9 9 10 11 12 11 11 10 9 9 9 10 10 9 9 9 7 7 7
4 8 2 1 3 3 1 5 11 7 1 2 2 5 1 3 2 6 8 3 5 3 1 7 4 7 5 6 9 14 13 9 9 8 5 3 6 3 4 6 8 9 8 8 7 7 7 7 6 6 6 5 5 5 5 5 4 6 7 7 8 6 5 5 7 7 9 9 8 8 7 8 8 8 9 9 10 9 10 10 10 9 9 9 8 9
3 3 7 1 1 2 5 5 9 12 11 5 4 7 2 1 2 5 1 4 4 4 4 2 7 5 7 6 5 10 9 10 9 12 8 5 3 2 4 7 8 8 8 8 7 7 7 7 7 6 5 4 4 4 4 3 5 5 4 6 7 8 8 8 8 8 9 8 8 8 9 8 8 8 8 8 9 10 10 9 10 10 10 9 9 9
4 2 11 5 4 7 5 2 6 11 10 10 13 15 16 12 6 7 6 2 1 2 4 2 10 5 6 3 8 9 10 7 9 6 10 7 5 7 7 6 5 8 8 7 7 7 7 7 7 6 3 3 3 4 4 3 3 4 5 5 5 5 6 7 7 7 7 7 7 9 9 9 8 8 8 9 9 9 9 9 9 9 9 11 10 10
6 4 10 7 5 7 2 1 2 1 3 4 4 4 4 3 5 3 4 3 1 2 4 2 1 10 4 4 5 7 7 3 4 3 7 7 7 8 8 7 8 6 9 9 9 8 7 6 6 5 5 4 4 3 3 3 4 4 4 4 5 6 7 7 6 5 5 6 7 8 8 8 8 8 9 10 9 9 9 9 8 9 11 9 9 7
8 6 8 2 2 4 2 1 0 0 2 1 1 2 4 7 3 5 2 4 5 1 2 1 3 8 1 4 7 5 4 3 3 3 6 8 6 7 7 8 8 8 7 8 8 8 7 5 4 4 4 5 5 3 4 4 4 4 3 3 4 6 6 6 6 6 6 6 6 5 6 7 7 8 9 9 8 9 8 8 8 8 9 10 10 10
5 2 8 8 4 1 4 1 1 0 2 2 4 2 4 3 4 3 4 2 2 8 7 6 9 8 2 3 4 2 2 4 4 6 7 7 6 6 7 7 7 7 8 9 9 7 5 5 5 6 5 5 5 4 3 5 5 5 5 4 5 5 4 4 4 5 6 6 6 6 6 6 7 8 8 9 7 8 8 8 9 8 10 9 9 9
6 7 10 11 13 12 7 10 14 12 9 3 4 10 12 18 16 11 8 8 7 11 18 8 15 4 4 5 4 5 3 5 5 5 3 7 7 7 6 7 8 7 8 9 10 7 6 6 5 5 5 5 6 6 5 5 5 5 5 6 5 5 4 4 4 5 5 6 7 7 8 8 8 8 9 8 8 9 9 9 9 9 7 10 11 8
5 4 6 10 16 18 16 4 6 13 6 10 12 15 13 9 9 9 2 4 17 2 10 18 16 2 3 3 2 5 6 5 10 7 5 5 6 7 7 8 7 6 7 10 10 9 6 5 7 8 6 6 6 6 6 6 5 5 4 4 4 5 5 5 5 5 6 6 7 7 8 8 8 8 8 8 8 8 8 9 9 10 10 7 10 11
5 7 14 12 6 1 3 3 10 21 19 18 14 13 12 11 12 16 13 16 6 8 11 12 3 11 9 7 7 8 8 7 9 5 5 7 5 7 7 5 8 9 10 8 8 8 9 8 6 7 7 6 7 6 6 5 6 5 5 5 4 4 5 5 5 5 6 6 6 6 7 6 5 7 7 7 7 8 7 7 7 7 7 9 9 9
9 12 7 7 2 4 3 9 13 13 14 11 17 16 16 18 15 19 23 12 7 11 19 5 10 9 7 11 12 11 9 16 12 10 10 11 11 5 5 6 8 10 9 8 9 9 8 8 8 7 7 7 6 7 6 6 6 4 3 3 4 4 5 5 5 5 6 6 7 7 6 6 5 5 6 7 7 7 7 7 7 7 7 7 8 7
7 1 5 7 5 5 5 5 6 13 5 5 9 13 19 18 23 25 23 16 14 14 16 4 2 8 7 7 8 11 10 4 6 5 6 7 10 11 12 11 10 10 9 9 10 11 9 9 9 8 7 7 8 8 7 6 6 6 6 5 5 5 5 5 5 6 6 6 5 5 6 6 6 7 7 8 8 8 7 8 8 8 8 8 8 8
6 1 4 4 5 2 3 3 4 6 8 9 8 13 18 21 22 22 16 11 12 17 16 5 11 19 9 8 10 4 3 5 6 9 9 9 9 11 10 11 12 12 13 11 10 11 10 10 9 7 7 9 8 9 8 7 7 6 7 6 6 6 5 6 6 6 7 7 6 6 7 7 7 8 8 8 8 8 8 8 8 8 8 8 9 10
6 2 2 5 6 0 1 4 3 4 1 5 10 16 21 19 15 11 9 8 8 19 6 5 14 21 3 12 6 2 5 11 17 17 14 12 10 8 11 14 14 14 13 11 10 9 10 10 10 9 10 8 6 7 7 7 7 7 9 8 7 6 5 6 6 8 7 7 8 8 8 8 8 8 8 8 8 9 8 8 8 8 9 9 9 8
4 7 7 6 8 5 4 6 8 5 3 4 12 28 20 12 14 9 14 15 20 17 9 14 21 14 7 5 5 7 13 15 13 12 12 14 12 11 14 14 14 13 12 11 10 10 9 9 9 9 8 5 6 7 9 8 8 10 9 7 7 5 6 6 5 6 7 7 9 9 8 8 9 8 8 8 9 9 8 9 9 9 9 10 9 9
8 9 6 6 8 6 5 6 4 6 6 16 18 5 17 20 16 12 17 19 15 9 16 17 16 2 4 7 12 11 10 12 14 15 10 8 10 11 10 10 11 12 11 10 8 9 10 9 9 6 5 6 6 7 6 7 10 7 6 7 7 8 8 8 7 7 6 6 7 8 8 8 9 9 10 10 10 10 10 10 10 9 8 8 9 10
15 12 8 4 6 6 4 6 7 7 17 13 7 8 15 13 17 24 22 14 16 17 18 14 13 6 11 11 10 10 12 13 8 5 5 6 7 11 11 9 8 11 12 10 10 9 9 9 9 9 7 6 6 5 5 6 5 3 3 4 6 6 7 7 7 6 6 7 6 6 8 9 9 9 9 9 9 9 9 9 9 9 9 9 10 11
17 12 6 3 6 5 3 8 7 19 7 6 2 1 7 14 15 11 10 6 9 15 19 20 22 17 14 11 6 6 8 7 4 2 6 11 12 11 8 10 12 10 10 10 9 11 9 8 8 7 8 4 4 5 7 7 6 6 6 4 5 5 5 6 6 7 6 8 9 9 9 9 8 7 7 8 8 9 9 9 10 10 8 8 7 5
16 12 10 5 0 9 5 12 13 6 10 14 3 2 7 8 7 13 11 16 18 15 15 18 19 16 16 12 10 7 3 3 6 10 9 13 13 8 12 14 11 11 9 11 9 10 8 5 5 7 5 4 5 5 7 5 7 7 7 8 8 7 7 8 8 8 9 9 9 9 9 9 10 8 9 8 9 9 9 9 9 8 7 9 8 9
11 17 7 11 3 6 8 2 3 4 14 13 6 5 9 7 10 8 7 15 8 16 16 16 17 16 16 13 6 4 4 1 9 11 15 15 10 12 9 9 10 9 9 9 8 7 7 5 5 7 6 6 6 6 4 7 8 8 8 8 8 8 8 9 10 9 9 8 7 7 7 8 9 9 9 9 10 9 8 7 6 8 8 10 11 10
4 2 11 15 6 5 5 9 9 11 16 6 9 11 9 10 14 7 5 15 4 14 13 17 18 19 18 11 7 9 7 3 8 11 14 10 4 5 7 8 7 7 6 5 5 8 8 7 5 6 4 4 6 5 4 6 8 8 9 9 9 9 10 11 10 9 9 7 6 6 6 5 6 7 8 9 8 8 9 9 9 8 7 7 7 8
10 6 7 4 6 7 7 5 12 6 5 2 7 6 10 8 13 9 2 13 5 16 19 20 20 17 6 10 12 10 10 7 9 10 7 3 1 3 5 5 4 4 6 3 3 4 7 7 5 4 3 4 6 1 4 5 6 7 8 8 7 9 11 11 8 6 5 6 6 6 5 5 6 7 9 9 8 7 8 7 8 9 9 7 7 8
5 0 6 16 8 4 9 8 3 7 4 4 5 5 8 10 13 10 18 5 3 3 3 7 10 5 10 11 11 9 12 11 11 8 1 1 1 1 3 3 5 3 6 6 5 4 5 5 3 5 4 4 2 3 4 5 5 6 5 5 7 10 8 5 5 6 6 7 7 7 7 5 6 8 7 7 8 7 7 7 9 9 9 9 8 8
7 7 1 3 12 14 10 7 10 4 6 7 0 13 13 9 2 19 8 3 8 6 3 8 9 9 13 14 12 10 10 11 9 4 7 5 3 6 3 3 4 5 3 3 4 3 5 4 4 4 3 4 0 4 5 6 6 5 5 6 8 6 4 5 6 6 7 7 8 8 8 8 6 7 8 7 8 9 8 6 7 8 9 8 9 11
12 10 11 11 2 6 3 9 0 14 6 12 9 5 6 10 7 6 4 0 3 6 8 4 7 8 10 9 10 11 6 1 3 7 6 7 5 7 6 3 5 5 6 6 5 4 4 4 5 4 4 4 2 1 4 4 5 4 4 6 5 3 5 5 6 6 6 6 6 7 8 8 9 8 7 8 9 10 9 8 8 8 8 9 9 10
10 10 8 9 9 14 12 11 12 5 9 13 22 16 13 4 4 9 7 8 1 4 7 7 3 9 11 11 12 8 7 4 5 7 7 7 7 5 4 3 3 3 3 3 3 4 3 1 2 2 3 4 3 1 1 5 5 4 4 5 2 5 4 5 4 5 6 6 6 6 6 6 7 7 6 7 8 7 8 8 7 7 7 8 9 9
16 12 3 13 7 10 13 14 1 3 9 13 9 4 11 9 4 4 7 8 9 6 4 5 9 6 10 8 7 8 4 6 7 3 3 5 4 3 5 4 3 3 2 2 3 3 1 0 0 2 3 4 3 1 0 1 4 4 5 3 4 6 7 6 6 6 6 6 6 6 5 5 5 5 5 6 8 9 8 8 8 8 6 7 7 8
2 6 1 7 4 3 5 1 0 2 6 8 1 2 14 8 2 1 5 6 5 8 11 8 6 8 7 5 8 3 6 5 5 5 5 5 5 5 4 4 2 1 1 1 1 2 0 2 2 2 2 2 3 1 1 1 4 5 4 4 4 5 6 7 7 6 6 5 5 5 5 6 4 4 4 4 4 5 6 8 8 7 7 7 6 7
2 3 2 3 1 7 11 4 5 6 5 9 4 1 2 1 7 5 6 6 4 6 6 2 9 10 10 9 7 7 6 4 4 4 2 4 5 6 4 4 4 1 1 1 1 1 0 1 1 2 2 1 1 1 1 1 1 3 5 6 5 5 6 6 6 5 5 5 5 4 5 6 5 4 4 4 4 4 5 5 6 6 7 7 8 8
4 4 6 3 8 15 6 6 3 1 6 9 8 5 6 9 6 6 1 2 4 5 5 4 5 6 5 6 5 5 3 3 2 3 3 4 4 4 4 4 3 2 2 1 1 0 1 1 2 2 2 1 0 1 1 1 1 2 4 4 4 5 6 6 6 7 6 6 5 5 5 5 6 7 5 5 6 6 6 6 6 8 10 11 11 11
5 12 10 10 9 1 3 3 3 2 2 5 7 8 7 10 13 7 4 4 5 7 5 4 2 6 5 2 4 3 1 1 2 2 4 5 4 4 4 3 2 3 1 0 1 0 1 1 1 1 1 0 1 1 2 2 2 1 2 3 4 5 6 5 4 4 4 4 5 5 4 5 6 6 6 6 5 4 4 8 8 8 6 3 3 6
10 14 2 6 4 7 11 9 9 9 6 10 14 17 15 7 3 4 5 5 5 5 5 5 2 2 3 4 5 4 2 1 0 1 3 4 4 5 4 1 1 1 2 3 3 2 2 4 1 1 1 2 4 3 3 3 3 2 1 1 4 4 7 6 5 4 4 4 4 4 4 4 4 4 5 6 6 5 2 2 3 4 6 6 2 4
14 13 11 12 12 16 13 12 16 10 6 10 15 14 9 5 5 7 9 6 3 4 6 7 6 4 3 0 0 3 2 1 1 0 2 3 4 3 3 2 1 1 2 3 3 5 4 3 3 2 2 3 4 4 4 4 5 4 3 1 1 4 6 7 6 4 4 3 3 3 3 4 4 4 4 5 5 5 5 3 1 3 3 4 4 4
Wind_Direction
143 154 183 189 179 180 190 195 173 179 153 137 131 138 214 196 273 282 265 253 100 356 244 242 245 246 260 257 265 277 153 229 255 255 239 236 230 225 225 228 232 233 235 234 232 223 213 211 210 208 202 208 206 207 204 206 209 209 210 201 211 206 201 201 201 197 193 199 204 208 204 210 202 201 199 204 206 206 208 206 203 199 199 192 192 196
136 176 201 182 166 177 185 157 128 105 123 143 153 165 214 168 244 230 205 339 321 158 285 316 281 254 253 259 260 246 176 236 230 235 241 243 234 232 226 231 226 231 261 262 250 226 206 210 209 203 206 201 205 210 205 209 210 210 208 210 214 203 200 204 202 200 203 206 204 199 211 208 205 195 195 203 206 208 206 205 205 206 207 201 194 194
184 203 167 183 169 164 164 156 153 155 138 104 138 160 153 257 269 285 271 350 312 109 263 300 291 266 259 261 261 260 230 243 229 216 227 223 231 228 228 234 238 235 238 236 245 223 215 211 209 206 210 211 214 212 211 213 210 209 211 216 214 210 202 205 203 201 209 206 204 204 206 199 202 201 198 206 204 199 205 207 207 205 203 199 201 198
176 219 184 159 142 148 163 152 142 112 92 115 94 137 195 217 133 290 289 354 319 180 269 293 301 282 271 257 255 258 235 247 238 226 235 211 219 221 223 221 227 231 236 234 234 224 212 207 208 207 211 212 208 214 216 212 212 212 215 214 213 213 205 205 204 205 209 206 205 207 207 202 201 202 201 207 206 205 209 214 208 207 201 197 200 198
174 138 153 135 151 146 154 149 140 149 173 154 157 138 151 162 205 164 241 302 297 347 43 318 292 285 235 256 270 248 241 244 257 251 251 244 234 238 259 280 215 226 224 235 245 227 209 208 210 206 209 203 209 214 213 207 207 210 213 212 210 211 206 206 202 202 201 196 201 205 208 202 203 131 188 201 214 209 202 204 199 206 201 202 200 196
115 202 124 138 147 153 150 172 180 147 194 186 243 186 174 165 140 265 333 27 11 332 324 71 343 263 298 253 256 276 306 230 250 236 239 240 229 233 241 242 238 236 229 228 237 229 211 212 219 216 204 202 212 215 215 206 209 210 215 211 209 209 207 206 203 196 190 197 198 187 192 196 200 206 198 200 198 184 188 200 192 196 197 202 206 202
172 166 161 159 154 154 165 177 199 161 170 155 240 162 161 158 125 87 16 71 268 239 256 44 218 281 319 292 263 275 275 264 276 248 254 254 250 233 231 236 236 229 236 236 249 246 214 215 210 209 205 207 210 217 209 204 210 211 214 210 206 207 208 204 200 189 189 197 200 200 200 197 204 209 214 213 211 204 202 190 193 200 201 204 201 200
112 126 104 115 141 164 166 193 208 166 137 210 196 140 124 110 143 150 99 128 240 260 294 104 133 262 296 273 223 256 269 265 268 269 262 265 260 246 237 234 235 234 229 227 231 236 228 221 206 212 211 206 211 213 198 211 213 211 211 204 204 207 207 201 194 190 193 197 199 202 205 207 212 210 215 203 204 189 177 191 195 195 199 200 201 199
142 158 164 168 168 174 200 164 130 167 152 217 178 149 160 162 156 132 103 149 220 41 291 49 38 302 230 272 310 353 259 263 254 266 273 260 257 250 244 241 237 238 233 221 232 236 225 222 219 222 219 218 223 207 203 209 209 210 211 208 207 209 207 202 193 193 195 198 197 199 202 209 215 213 215 201 190 186 179 191 194 193 192 193 200 200
329 178 180 156 160 190 177 156 155 163 148 275 140 51 80 82 69 121 109 82 341 50 264 152 180 232 277 235 263 355 249 258 262 254 257 240 237 241 243 242 240 244 245 226 231 242 241 229 230 229 241 229 216 214 215 218 210 209 204 206 207 212 207 201 197 197 198 197 195 200 203 208 209 204 201 182 193 191 180 194 190 192 190 192 197 203
205 327 145 123 189 172 151 146 167 168 116 119 120 110 84 45 40 24 63 83 34 260 251 164 204 166 293 202 219 186 228 213 233 265 264 253 242 247 244 244 243 237 239 239 234 241 242 237 235 216 220 227 225 211 206 211 207 204 201 202 206 212 205 200 201 196 199 196 198 203 203 205 207 200 195 192 194 188 185 196 192 191 195 188 199 199
26 42 125 265 112 78 102 82 7 75 139 133 143 131 107 5 27 27 343 27 164 255 111 247 174 165 223 289 259 219 247 232 209 227 231 239 240 239 239 239 249 267 272 268 255 256 256 271 255 231 238 234 232 213 214 213 207 202 202 199 206 210 205 202 201 199 202 199 203 207 204 205 205 196 195 199 195 185 175 191 191 190 185 195 197 195
52 154 249 34 278 139 125 106 8 93 167 123 132 132 131 172 65 260 102 219 208 230 201 181 138 45 233 241 309 279 259 258 228 223 238 256 277 284 293 302 283 266 274 271 263 263 265 252 254 240 244 245 234 219 218 217 210 210 206 200 202 208 202 201 197 200 202 202 205 205 205 207 202 200 199 200 201 192 193 191 188 178 193 186 184 190
264 297 303 199 62 258 149 147 162 144 205 164 160 154 139 147 173 212 186 328 323 294 281 95 121 272 277 292 220 243 254 241 239 234 253 256 262 273 283 300 305 299 274 263 255 254 252 246 245 243 249 243 239 230 223 217 213 211 211 206 205 211 199 199 198 201 202 207 208 205 205 204 198 203 200 201 200 194 194 191 192 186 177 181 189 170
139 220 239 160 199 187 161 159 162 128 159 179 76 167 168 135 161 202 174 199 216 208 221 284 78 233 133 244 336 234 262 294 288 248 259 264 260 267 282 291 285 275 271 251 253 251 256 265 264 266 259 255 245 236 228 218 214 209 212 208 211 212 201 198 202 200 206 209 208 204 205 203 201 203 199 202 199 189 190 192 194 194 193 191 194 188
201 185 293 160 230 154 169 177 129 110 89 296 177 56 100 222 116 147 207 151 203 193 248 203 212 205 193 268 286 250 265 290 278 281 276 274 268 274 283 278 272 265 268 273 269 273 268 264 266 263 266 266 264 252 240 226 218 213 216 215 218 215 205 200 199 203 205 206 202 202 202 204 201 201 199 199 195 193 189 188 190 191 189 190 185 178
125 186 329 352 78 166 177 149 170 151 163 199 124 216 197 147 94 110 49 333 94 48 256 172 292 277 297 288 250 265 269 271 264 267 274 268 283 295 263 260 273 282 284 281 268 270 279 281 260 241 240 246 252 255 240 235 222 219 215 215 221 224 220 210 207 208 206 205 200 204 203 201 200 197 197 196 194 190 185 183 189 186 188 180 174 168
141 164 1 62 173 301 346 172 168 119 149 115 198 203 79 97 119 131 201 1 105 185 263 101 239 290 35 280 330 7 280 275 283 277 269 280 311 311 286 293 280 258 262 280 282 277 273 271 271 267 255 238 238 238 240 235 234 236 237 228 222 221 221 219 213 211 206 203 205 204 204 203 200 198 199 195 188 179 173 181 181 173 163 178 173 164
130 80 276 320 183 344 39 100 79 324 352 156 190 191 147 219 237 265 89 249 140 273 270 293 272 268 200 251 347 334 337 274 272 278 288 299 283 256 282 295 297 299 298 289 289 292 289 273 262 256 255 244 232 236 240 251 235 223 224 234 236 233 230 226 219 217 218 213 210 207 204 201 199 198 195 190 178 171 177 178 176 176 177 159 154 152
65 126 312 310 135 216 92 163 179 175 355 45 67 175 201 105 164 151 199 167 112 237 50 283 28 261 187 220 210 245 245 236 249 270 278 250 267 277 280 287 293 302 300 298 292 285 278 273 260 250 247 252 243 236 234 235 234 232 229 218 220 231 233 226 216 208 212 209 208 206 200 203 200 195 188 179 170 175 182 179 174 170 161 168 159 161
94 113 138 205 293 124 168 200 189 162 158 163 151 184 219 260 243 116 94 145 171 174 182 269 312 277 255 214 183 239 250 248 258 277 278 262 262 254 257 273 290 292 299 299 290 286 282 279 282 276 261 256 260 253 258 244 226 230 223 229 227 221 218 216 211 205 214 200 205 194 194 192 189 187 179 172 177 178 181 174 172 173 168 149 164 154
83 88 137 157 124 203 242 224 172 184 190 179 173 189 187 163 160 153 242 29 91 125 237 144 267 241 269 173 202 221 247 235 251 272 290 288 313 305 298 283 261 291 295 291 288 282 280 281 284 290 288 279 284 270 249 237 230 235 220 217 220 231 231 222 215 210 207 204 199 199 194 190 185 180 177 177 176 179 176 172 173 162 151 165 159 159
141 100 110 148 202 176 224 330 285 327 187 180 154 226 157 158 95 98 147 256 24 247 114 150 263 280 240 220 220 215 233 291 336 1 284 299 296 288 287 285 294 268 273 288 289 281 271 271 273 281 287 271 259 266 256 249 237 235 236 225 208 200 217 210 214 209 210 206 201 199 193 182 181 176 177 177 178 178 172 169 161 158 159 157 154 155
91 108 95 27 14 313 323 285 348 77 120 169 331 59 120 197 174 163 156 181 160 234 136 308 265 243 250 195 221 235 318 262 220 194 250 272 277 273 269 288 294 302 296 291 279 270 267 268 286 291 266 258 245 221 220 235 238 242 236 233 229 223 214 202 197 194 195 198 199 187 176 180 174 174 175 178 176 171 165 158 157 158 156 153 151 147
91 261 123 122 96 350 346 349 314 305 107 168 144 193 168 147 179 179 106 142 243 212 158 140 238 266 270 344 296 309 350 333 273 252 201 248 267 259 277 294 297 287 295 294 286 272 279 282 264 255 251 252 258 261 229 214 210 203 208 199 208 222 223 211 200 191 188 181 177 172 173 173 171 175 176 173 165 162 153 153 152 155 150 145 144 141
99 173 145 145 158 172 184 194 202 192 178 204 185 174 191 187 184 147 193 196 198 213 173 188 240 236 297 341 342 324 16 328 301 274 276 217 246 273 291 288 291 299 295 295 291 295 284 270 271 263 250 246 247 241 234 228 218 209 205 207 198 209 203 196 183 185 177 176 170 171 172 172 172 176 172 161 156 157 157 152 154 150 150 149 141 138
127 161 194 173 174 188 197 179 52 102 111 184 206 187 199 198 183 190 79 123 215 167 172 225 224 13 317 261 312 294 330 304 295 301 277 270 258 254 259 264 265 282 285 289 291 291 302 292 270 262 250 237 234 231 232 227 222 210 206 210 201 196 193 193 178 173 170 172 174 171 176 173 174 164 159 159 157 154 153 154 152 150 148 146 143 142
119 162 208 190 188 44 121 156 164 151 174 196 172 193 188 183 185 191 186 220 119 92 245 231 175 242 235 282 272 286 281 290 275 248 227 244 273 267 262 265 293 297 296 286 280 303 308 296 281 269 258 246 239 232 237 236 230 210 196 203 202 194 190 190 177 170 169 167 168 170 168 167 155 154 155 149 146 149 146 139 140 139 136 140 140 138
159 187 191 131 148 40 44 139 159 167 182 176 182 184 182 194 184 197 217 207 141 190 234 138 171 222 230 217 241 259 296 280 291 312 311 315 310 276 236 259 262 259 269 294 308 305 301 299 286 271 257 249 244 238 231 229 234 234 231 212 189 186 196 180 173 174 169 168 170 168 156 141 136 128 130 133 132 133 135 135 132 131 132 131 126 129
137 194 160 151 131 66 27 111 163 155 157 145 183 189 198 188 200 205 215 203 203 227 234 142 213 226 222 226 218 230 234 274 295 303 315 299 275 287 300 295 292 292 295 299 297 297 291 276 271 262 252 247 236 235 227 219 218 209 196 202 197 193 190 168 181 170 168 167 157 140 137 134 131 133 131 136 141 142 138 134 134 133 131 131 131 131
114 256 109 99 95 37 4 42 64 152 146 187 209 204 204 206 208 210 213 213 226 252 251 319 298 275 227 200 230 240 346 280 312 289 259 254 271 278 282 285 287 289 293 294 287 281 280 276 270 268 254 247 233 228 221 218 211 202 202 196 191 197 185 178 175 174 168 161 150 147 139 139 144 143 149 149 141 139 139 137 137 134 131 133 137 140
80 198 23 103 94 257 349 98 64 87 112 177 214 220 216 205 211 213 215 209 200 232 221 242 258 255 133 208 219 201 266 263 262 263 262 259 255 261 267 272 275 278 278 276 271 271 277 275 272 267 260 254 236 225 221 214 205 201 209 192 191 189 175 186 181 175 175 159 154 154 155 155 152 153 150 147 146 144 140 139 139 141 142 141 144 149
117 139 131 125 137 210 210 142 145 118 126 303 254 226 201 192 204 191 218 206 210 211 196 224 237 239 200 170 161 207 219 237 246 249 260 264 261 251 253 259 266 269 268 264 264 267 267 268 268 266 271 273 241 223 223 205 196 211 202 189 187 155 175 191 190 183 173 167 164 163 163 158 159 156 152 153 148 146 147 151 150 149 151 155 155 151
129 135 149 159 162 178 144 159 120 148 199 227 242 144 162 193 181 187 219 213 218 180 221 220 241 165 126 149 195 211 215 229 227 236 235 259 266 267 256 250 257 268 275 271 263 265 273 281 284 277 256 259 248 229 225 203 212 210 190 182 167 173 182 181 191 186 177 170 175 168 165 165 164 163 163 158 156 156 158 160 161 157 153 147 153 160
168 168 164 156 142 141 171 119 138 202 227 240 42 172 176 160 171 203 219 203 210 216 235 250 256 226 210 204 197 207 219 235 241 288 326 277 241 244 254 265 266 260 264 275 279 269 263 267 283 290 283 263 238 219 195 214 211 175 173 181 180 188 182 189 180 185 175 175 176 173 170 171 172 167 163 161 159 160 163 162 155 156 159 161 164 165
177 167 119 51 112 68 112 171 167 221 245 333 304 38 171 159 192 197 252 255 229 211 218 231 237 240 235 229 216 221 228 256 333 263 231 250 240 246 264 255 252 255 263 265 268 277 282 280 270 274 279 244 196 204 194 199 168 162 174 163 188 187 196 188 190 188 176 183 182 182 180 171 170 164 160 162 162 164 165 164 163 159 156 153 151 141
168 133 150 137 247 152 198 182 219 335 343 262 114 208 120 162 153 169 211 240 217 214 205 227 235 235 243 239 222 214 239 345 330 306 258 252 258 232 232 254 257 256 258 271 271 281 284 275 276 270 262 244 213 202 208 175 161 165 160 172 189 186 191 187 193 196 193 195 190 186 179 173 165 165 167 167 166 169 166 161 157 155 155 153 157 155
162 158 166 132 226 144 136 194 327 295 251 251 116 192 181 152 153 153 173 264 194 208 208 218 230 229 234 232 202 146 103 349 290 274 269 258 247 258 252 249 265 267 266 274 300 293 288 289 281 275 250 253 237 223 183 168 169 168 171 182 179 184 194 197 203 194 193 198 192 189 179 175 168 167 168 169 174 170 164 156 149 159 165 163 162 166
40 65 156 167 148 91 153 175 204 210 236 115 160 176 184 159 140 141 76 262 192 187 195 205 221 225 224 204 137 132 103 188 247 249 262 270 258 223 246 253 251 263 268 266 269 289 298 300 282 278 266 242 246 235 182 173 168 169 183 182 183 186 195 204 202 194 192 186 171 174 177 174 168 167 168 174 173 167 163 167 165 158 160 161 157 154
145 139 154 124 163 185 160 168 224 219 259 244 190 189 167 151 124 105 183 256 207 189 193 195 209 219 196 120 143 140 151 192 237 249 241 247 152 220 189 235 263 273 282 277 279 258 282 292 308 286 253 234 256 206 177 165 174 188 188 187 175 190 205 205 195 175 162 152 153 154 161 171 172 171 172 172 166 164 166 155 151 164 163 156 154 150
136 149 175 197 166 145 169 226 327 290 275 238 220 185 143 148 129 148 212 228 248 168 178 171 211 180 129 144 153 172 212 200 209 220 323 305 341 257 254 249 245 241 278 302 295 310 310 310 300 284 288 279 251 160 160 158 166 197 197 180 186 211 206 175 156 159 160 151 151 155 162 166 175 171 174 171 167 159 155 163 163 159 161 155 150 148
189 158 320 120 186 187 198 202 233 266 232 176 273 154 167 108 193 209 216 195 145 187 191 175 175 166 162 165 183 198 213 219 245 310 296 293 275 274 231 255 317 312 278 252 271 331 334 331 340 340 353 354 21 151 157 162 178 192 186 185 212 210 157 153 157 154 153 158 162 160 163 167 167 168 166 159 153 158 162 161 158 163 159 155 154 155
172 153 187 189 145 48 87 214 1 247 226 140 135 112 288 175 226 143 152 221 200 160 154 201 178 173 158 179 199 205 224 230 234 252 267 283 296 285 298 306 297 290 302 324 332 356 355 345 354 11 345 333 353 145 160 163 180 186 181 206 219 158 152 153 150 152 153 153 160 167 168 168 166 168 164 164 166 162 162 159 159 161 157 154 153 153
168 169 194 198 177 177 181 195 213 217 123 161 145 180 191 191 196 145 121 172 195 139 173 161 187 182 177 169 186 226 233 238 290 257 271 280 265 275 287 295 291 284 288 273 262 301 328 350 26 16 358 353 5 22 136 167 176 173 181 215 154 137 128 131 137 137 144 155 160 162 168 168 165 160 163 162 159 158 155 161 161 158 163 162 158 155
207 197 157 177 175 168 202 209 59 261 155 177 173 71 162 209 182 216 145 159 165 236 191 160 189 177 190 167 166 176 203 221 229 208 192 254 296 289 295 287 294 291 279 283 300 319 341 83 149 74 24 358 5 17 78 151 167 169 189 199 153 147 146 144 143 145 154 161 163 162 159 153 159 161 162 165 162 161 161 160 161 161 166 160 162 162
356 195 107 98 263 346 351 159 286 119 171 192 13 222 178 190 244 174 154 133 217 176 173 183 169 165 158 166 125 194 205 204 212 255 250 280 288 288 290 305 305 232 241 292 316 349 338 102 90 91 83 5 354 352 51 134 157 176 203 166 160 151 144 144 144 153 157 150 149 148 140 144 135 136 140 149 156 160 161 162 166 164 160 164 165 166
267 105 133 149 120 109 245 139 156 194 172 199 207 319 300 173 193 186 186 187 163 144 143 83 143 158 169 170 183 170 207 184 204 253 271 287 282 280 290 286 291 251 225 249 280 283 352 102 91 108 120 105 319 344 7 74 89 162 147 164 157 146 142 142 144 138 137 142 134 130 141 148 148 142 134 144 138 135 148 154 165 161 164 172 168 170
248 183 156 203 153 180 240 162 176 220 208 200 186 182 178 219 230 217 145 136 126 141 145 166 118 105 130 166 192 162 180 174 185 265 284 263 276 299 303 292 277 273 255 242 265 154 122 122 154 186 169 172 319 346 11 52 97 147 143 144 144 136 133 137 148 151 153 148 144 149 153 150 149 150 156 165 165 161 161 172 176 175 181 182 180 174
147 133 200 168 170 277 356 284 297 92 96 228 243 247 228 200 206 183 141 119 120 113 91 75 64 152 155 170 151 129 104 257 197 231 269 294 303 312 305 279 232 226 213 245 343 350 193 170 190 254 188 234 341 3 30 31 19 33 123 129 132 134 126 124 117 122 129 136 139 151 157 156 163 167 163 166 169 168 170 178 184 187 192 216 190 202
115 184 164 99 160 190 191 185 170 130 216 219 219 216 221 223 216 160 146 172 170 132 131 125 80 63 117 147 151 136 174 229 201 185 249 267 290 308 317 319 23 33 22 9 14 21 26 25 28 1 348 345 357 11 24 20 11 12 26 97 125 126 123 125 118 117 133 138 149 151 156 157 161 162 162 166 172 155 105 52 153 178 186 195 159 131
175 177 153 181 186 212 192 173 192 176 175 199 197 212 210 179 150 168 194 190 145 132 156 140 123 103 90 32 31 139 166 181 255 175 251 312 333 355 11 37 58 41 32 15 26 14 22 18 36 37 19 354 3 10 11 10 2 3 3 19 96 120 132 133 130 132 135 146 158 164 160 155 158 168 162 167 166 169 166 141 68 97 133 159 166 165